Weather History for Sparta, TN

Change the Weather History Date:

Monday, December 31, 2012

  Actual Average (KCSV) Record (KCSV)
Temperature  
Mean Temperature 32 °F 36 °F  
Max Temperature 42 °F 45 °F 69 °F (1984)
Min Temperature 21 °F 28 °F 3 °F (1976)
Degree Days  
Heating Degree Days 34    
Month to date heating degree days  
Since 1 July heating degree days  
Cooling Degree Days 0    
Month to date cooling degree days  
Year to date cooling degree days  
Moisture  
Dew Point 31 °F    
Average Humidity 83    
Maximum Humidity 100    
Minimum Humidity 65    
Precipitation  
Precipitation 0.00 in 0.14 in 1.51 in (1963)
Month to date precipitation 4.95  
Year to date precipitation 55.09  
Sea Level Pressure  
Sea Level Pressure 30.22 in    
Wind  
Wind Speed 2 mph (South)    
Max Wind Speed 10 mph    
Max Gust Speed -    
Visibility 10 miles    
Events      
T = Trace of Precipitation, MM = Missing Value Source: NWS Daily Summary

Daily Weather History Graph

Daily Weather History Graph

Search for Another Location

Airport:

Trip Planner

Search our weather history database for the weather conditions in past years. The results will help you decide how hot, cold, wet, or windy it might be!

Date:

Astronomy

Dec. 31, 2012 Rise Set
Actual Time 6:52 AM CST 4:38 PM CST
Civil Twilight 6:24 AM CST 5:06 PM CST
Nautical Twilight 5:52 AM CST 5:38 PM CST
Astronomical Twilight 5:21 AM CST 6:09 PM CST
Moon 8:01 PM CST (12/31) 8:40 AM CST (12/31)
Length of Visible Light 10h 42m
Length of Day
9h 45m
Waning Gibbous, 90% of the Moon is Illuminated
Dec 31
Waning Gibbous
Jan 4
Last Quarter
Jan 11
New
Jan 18
First Quarter
Jan 26
Full

Hourly Weather History & Observations

Time (CST) Temp. Windchill Dew Point Humidity Pressure Visibility Wind Dir Wind Speed Gust Speed Precip Events Conditions
12:15 AM 21.2 °F - 21.2 °F 100% 30.33 in 10.0 mi Calm Calm - N/A   Clear
12:35 AM 21.2 °F - 21.2 °F 100% 30.33 in 10.0 mi Calm Calm - N/A   Clear
12:55 AM 21.2 °F - 21.2 °F 100% 30.34 in 10.0 mi Calm Calm - N/A   Clear
1:15 AM 24.8 °F - 24.8 °F 100% 30.35 in 10.0 mi Calm Calm - N/A   Clear
1:35 AM 23.0 °F - 23.0 °F 100% 30.34 in 10.0 mi Calm Calm - N/A   Clear
1:55 AM 24.8 °F - 24.8 °F 100% 30.34 in 10.0 mi Calm Calm - N/A   Clear
2:15 AM 24.8 °F - 24.8 °F 100% 30.34 in 10.0 mi Calm Calm - N/A   Clear
2:35 AM 26.6 °F - 24.8 °F 93% 30.34 in 10.0 mi Calm Calm - N/A   Clear
2:55 AM 24.8 °F - 24.8 °F 100% 30.33 in 10.0 mi Calm Calm - N/A   Clear
3:15 AM 26.6 °F - 24.8 °F 93% 30.32 in 10.0 mi Calm Calm - N/A   Clear
3:35 AM 24.8 °F - 24.8 °F 100% 30.32 in 10.0 mi Calm Calm - N/A   Clear
3:55 AM 26.6 °F 21.2 °F 24.8 °F 93% 30.31 in 10.0 mi South 4.6 mph - N/A   Clear
4:15 AM 28.4 °F 21.2 °F 26.6 °F 93% 30.31 in 10.0 mi SSE 6.9 mph - N/A   Clear
4:35 AM 28.4 °F 24.6 °F 26.6 °F 93% 30.32 in 10.0 mi South 3.5 mph - N/A   Clear
4:55 AM 28.4 °F 24.6 °F 26.6 °F 93% 30.32 in 10.0 mi SSE 3.5 mph - N/A   Clear
5:15 AM 30.2 °F - 26.6 °F 86% 30.31 in 10.0 mi Calm Calm - N/A   Partly Cloudy
5:35 AM 28.4 °F - 28.4 °F 100% 30.33 in 10.0 mi Calm Calm - N/A   Partly Cloudy
5:55 AM 30.2 °F 24.3 °F 26.6 °F 86% 30.31 in 10.0 mi South 5.8 mph - N/A   Clear
6:35 AM 30.2 °F 26.7 °F 26.6 °F 86% 30.30 in 10.0 mi Variable 3.5 mph - N/A   Partly Cloudy
6:55 AM 30.2 °F 25.4 °F 26.6 °F 86% 30.31 in 10.0 mi SSW 4.6 mph - N/A   Partly Cloudy
7:15 AM 30.2 °F 26.7 °F 28.4 °F 93% 30.31 in 10.0 mi SSW 3.5 mph - N/A   Clear
7:35 AM 32.0 °F - 28.4 °F 87% 30.31 in 10.0 mi Calm Calm - N/A   Clear
7:55 AM 30.2 °F 26.7 °F 28.4 °F 93% 30.30 in 10.0 mi SSW 3.5 mph - N/A   Clear
8:15 AM 33.8 °F 30.8 °F 26.6 °F 75% 30.29 in 10.0 mi SSW 3.5 mph - N/A   Clear
8:35 AM 33.8 °F 30.8 °F 28.4 °F 81% 30.31 in 10.0 mi SSW 3.5 mph - N/A   Clear
8:55 AM 33.8 °F 30.8 °F 28.4 °F 81% 30.31 in 10.0 mi South 3.5 mph - N/A   Clear
9:15 AM 33.8 °F 29.6 °F 26.6 °F 75% 30.31 in 10.0 mi South 4.6 mph - N/A   Clear
9:35 AM 35.6 °F 30.7 °F 26.6 °F 70% 30.31 in 10.0 mi South 5.8 mph - N/A   Clear
9:55 AM 35.6 °F 31.7 °F 26.6 °F 70% 30.30 in 10.0 mi South 4.6 mph - N/A   Clear
10:15 AM 37.4 °F 32.8 °F 28.4 °F 70% 30.31 in 10.0 mi SSW 5.8 mph - N/A   Clear
10:35 AM 37.4 °F 33.8 °F 28.4 °F 70% 30.28 in 10.0 mi South 4.6 mph - N/A   Partly Cloudy
10:55 AM 37.4 °F 34.9 °F 28.4 °F 70% 30.28 in 10.0 mi SSW 3.5 mph - N/A   Clear
11:15 AM 39.2 °F 34.2 °F 30.2 °F 70% 30.27 in 10.0 mi SSW 6.9 mph - N/A   Partly Cloudy
11:35 AM 41.0 °F 34.7 °F 30.2 °F 65% 30.26 in 10.0 mi SW 10.4 mph - N/A   Partly Cloudy
11:55 AM 39.2 °F 33.0 °F 30.2 °F 70% 30.24 in 10.0 mi SW 9.2 mph - N/A   Mostly Cloudy
12:15 PM 39.2 °F 35.0 °F 30.2 °F 70% 30.23 in 10.0 mi SW 5.8 mph - N/A   Mostly Cloudy
12:35 PM 39.2 °F 35.0 °F 30.2 °F 70% 30.23 in 10.0 mi SW 5.8 mph - N/A   Mostly Cloudy
12:55 PM 39.2 °F 37.0 °F 32.0 °F 75% 30.21 in 10.0 mi SSW 3.5 mph - N/A   Mostly Cloudy
1:15 PM 39.2 °F 34.2 °F 32.0 °F 75% 30.18 in 10.0 mi South 6.9 mph - N/A   Mostly Cloudy
1:35 PM 39.2 °F - 33.8 °F 81% 30.19 in 10.0 mi Calm Calm - N/A   Overcast
1:55 PM 41.0 °F 38.0 °F 32.0 °F 70% 30.18 in 10.0 mi South 4.6 mph - N/A   Overcast
2:15 PM 41.0 °F 38.0 °F 32.0 °F 70% 30.18 in 10.0 mi South 4.6 mph - N/A   Overcast
2:35 PM 42.8 °F - 33.8 °F 70% 30.19 in 10.0 mi Calm Calm - N/A   Overcast
2:55 PM 42.8 °F - 33.8 °F 70% 30.19 in 10.0 mi Calm Calm - N/A   Mostly Cloudy
3:15 PM 41.0 °F 39.0 °F 33.8 °F 76% 30.18 in 10.0 mi SSW 3.5 mph - N/A   Mostly Cloudy
3:35 PM 41.0 °F 39.0 °F 33.8 °F 76% 30.18 in 10.0 mi South 3.5 mph - N/A   Scattered Clouds
3:55 PM 41.0 °F 39.0 °F 33.8 °F 76% 30.16 in 10.0 mi South 3.5 mph - N/A   Partly Cloudy
4:15 PM 41.0 °F - 33.8 °F 76% 30.15 in 10.0 mi Calm Calm - N/A   Clear
4:35 PM 39.2 °F - 33.8 °F 81% 30.15 in 10.0 mi Calm Calm - N/A   Clear
4:55 PM 39.2 °F - 35.6 °F 87% 30.16 in 10.0 mi Calm Calm - N/A   Clear
5:15 PM 39.2 °F - 35.6 °F 87% 30.16 in 10.0 mi Calm Calm - N/A   Scattered Clouds
5:35 PM 39.2 °F - 35.6 °F 87% 30.15 in 10.0 mi Calm Calm - N/A   Mostly Cloudy
5:55 PM 39.2 °F - 33.8 °F 81% 30.14 in 10.0 mi Calm Calm - N/A   Partly Cloudy
6:15 PM 39.2 °F 37.0 °F 33.8 °F 81% 30.14 in 10.0 mi SSE 3.5 mph - N/A   Clear
6:35 PM 39.2 °F 34.2 °F 33.8 °F 81% 30.13 in 10.0 mi South 6.9 mph - N/A   Clear
6:55 PM 41.0 °F 36.4 °F 33.8 °F 76% 30.12 in 10.0 mi South 6.9 mph - N/A   Scattered Clouds
7:15 PM 39.2 °F 35.0 °F 33.8 °F 81% 30.11 in 10.0 mi South 5.8 mph - N/A   Mostly Cloudy
7:35 PM 39.2 °F 35.0 °F 33.8 °F 81% 30.10 in 10.0 mi South 5.8 mph - N/A   Clear
7:55 PM 39.2 °F 34.2 °F 33.8 °F 81% 30.11 in 10.0 mi South 6.9 mph - N/A   Mostly Cloudy
8:15 PM 39.2 °F 34.2 °F 33.8 °F 81% 30.11 in 10.0 mi South 6.9 mph - N/A   Overcast
8:35 PM 41.0 °F 37.1 °F 33.8 °F 76% 30.10 in 10.0 mi SSE 5.8 mph - N/A   Overcast
8:55 PM 41.0 °F 39.0 °F 33.8 °F 76% 30.09 in 10.0 mi SSE 3.5 mph - N/A   Overcast
9:15 PM 42.8 °F 40.1 °F 35.6 °F 76% 30.09 in 10.0 mi SSE 4.6 mph - N/A   Overcast
9:35 PM 42.8 °F 40.1 °F 35.6 °F 76% 30.08 in 10.0 mi SSE 4.6 mph - N/A   Mostly Cloudy
9:55 PM 42.8 °F 40.1 °F 35.6 °F 76% 30.06 in 10.0 mi SSE 4.6 mph - N/A   Overcast
10:15 PM 42.8 °F 39.3 °F 37.4 °F 81% 30.05 in 10.0 mi SSE 5.8 mph - N/A   Overcast
10:35 PM 42.8 °F 40.1 °F 37.4 °F 81% 30.05 in 10.0 mi SSE 4.6 mph - N/A   Overcast
10:55 PM 42.8 °F 39.3 °F 39.2 °F 87% 30.04 in 10.0 mi SSE 5.8 mph - N/A   Overcast
11:15 PM 42.8 °F 39.3 °F 39.2 °F 87% 30.03 in 10.0 mi South 5.8 mph - N/A   Overcast
11:35 PM 42.8 °F 41.1 °F 39.2 °F 87% 30.04 in 10.0 mi South 3.5 mph - N/A   Overcast
11:55 PM 42.8 °F 40.1 °F 39.2 °F 87% 30.04 in 10.0 mi South 4.6 mph - N/A   Overcast